Location: Caltech
(34.1382°N, 118.1253°W)
Time: 14:28:33
(UTC-07:00)

MaSat-1 - Visible Passes

Search period start: 16 September 2014 00:00
Search period end: 26 September 2014 00:00
Orbit: 277 x 718 km, 69.5° (Epoch: 16 September)

Date Brightness Start Highest point End Pass type
(mag) Time Alt. Az. Time Alt. Az. Time Alt. Az.
16 Sep ? 20:00:12 10° WNW 20:02:36 17° WSW 20:04:48 10° SW visible
17 Sep ? 19:38:24 10° NW 19:41:09 21° WSW 19:43:37 10° SSW visible
18 Sep ? 19:16:28 10° NW 19:19:30 26° WSW 19:22:09 10° SSW visible
